Time,TemperatureF,DewpointF,PressureIn,WindDirection,WindDirectionDegrees,WindSpeedMPH,WindSpeedGustMPH,Humidity,HourlyPrecipIn,Conditions,Clouds,dailyrainin,SolarRadiationWatts/m^2,SoftwareType,DateUTC
2013-12-14 00:08:00,29.8,28.0,30.16,ENE,73,2.0,-999.0,94,-99.99,,,0.00,0,weatherlink.com 1.10,2013-12-14 05:08:00,
2013-12-14 00:23:00,29.8,28.0,30.15,ESE,103,0.0,-999.0,94,-99.99,,,0.00,0,weatherlink.com 1.10,2013-12-14 05:23:00,
2013-12-14 00:38:00,29.8,28.0,30.15,ESE,106,0.0,-999.0,94,-99.99,,,0.00,0,weatherlink.com 1.10,2013-12-14 05:38:00,
2013-12-14 00:52:00,29.9,29.0,30.14,East,81,0.0,-999.0,95,-99.99,,,0.00,0,weatherlink.com 1.10,2013-12-14 05:52:00,
2013-12-14 01:08:00,29.9,29.0,30.14,East,93,0.0,-999.0,95,-99.99,,,0.00,0,weatherlink.com 1.10,2013-12-14 06:08:00,
2013-12-14 01:23:00,29.8,29.0,30.13,ENE,64,2.0,-999.0,95,-99.99,,,0.00,0,weatherlink.com 1.10,2013-12-14 06:23:00,
2013-12-14 01:38:00,29.7,29.0,30.13,NE,54,2.0,-999.0,95,-99.99,,,0.00,0,weatherlink.com 1.10,2013-12-14 06:38:00,
2013-12-14 01:53:00,29.7,29.0,30.13,ESE,103,1.0,-999.0,95,-99.99,,,0.00,0,weatherlink.com 1.10,2013-12-14 06:53:00,
2013-12-14 02:08:00,29.7,29.0,30.12,NE,45,2.0,-999.0,95,-99.99,,,0.00,0,weatherlink.com 1.10,2013-12-14 07:08:00,
2013-12-14 02:23:00,29.8,29.0,30.11,NE,51,3.0,-999.0,95,-99.99,,,0.00,0,weatherlink.com 1.10,2013-12-14 07:23:00,
2013-12-14 02:38:00,29.8,29.0,30.12,NNE,33,1.0,-999.0,95,-99.99,,,0.00,0,weatherlink.com 1.10,2013-12-14 07:38:00,
2013-12-14 02:53:00,29.8,29.0,30.12,NE,41,4.0,-999.0,95,-99.99,,,0.00,0,weatherlink.com 1.10,2013-12-14 07:53:00,
2013-12-14 03:08:00,29.6,28.0,30.11,ENE,64,7.0,-999.0,95,-99.99,,,0.00,0,weatherlink.com 1.10,2013-12-14 08:08:00,
2013-12-14 03:23:00,29.4,28.0,30.11,East,100,0.0,-999.0,95,-99.99,,,0.00,0,weatherlink.com 1.10,2013-12-14 08:23:00,
2013-12-14 03:38:00,29.4,28.0,30.11,NE,56,0.0,-999.0,95,-99.99,,,0.00,0,weatherlink.com 1.10,2013-12-14 08:38:00,
2013-12-14 03:53:00,29.6,28.0,30.09,NE,50,1.0,-999.0,95,-99.99,,,0.00,0,weatherlink.com 1.10,2013-12-14 08:53:00,
2013-12-14 04:08:00,29.5,28.0,30.08,NNE,29,4.0,-999.0,95,-99.99,,,0.00,0,weatherlink.com 1.10,2013-12-14 09:08:00,
2013-12-14 04:23:00,29.4,28.0,30.07,ENE,70,2.0,-999.0,95,-99.99,,,0.00,0,weatherlink.com 1.10,2013-12-14 09:23:00,
2013-12-14 04:38:00,29.4,28.0,30.06,NE,56,5.0,-999.0,95,-99.99,,,0.00,0,weatherlink.com 1.10,2013-12-14 09:38:00,
2013-12-14 04:52:00,29.4,28.0,30.06,ENE,60,1.0,-999.0,95,-99.99,,,0.00,0,weatherlink.com 1.10,2013-12-14 09:52:00,
2013-12-14 05:08:00,29.4,28.0,30.06,ENE,71,4.0,-999.0,95,-99.99,,,0.00,0,weatherlink.com 1.10,2013-12-14 10:08:00,
2013-12-14 05:23:00,29.2,28.0,30.05,East,85,2.0,-999.0,95,-99.99,,,0.00,0,weatherlink.com 1.10,2013-12-14 10:23:00,
2013-12-14 05:38:00,29.1,28.0,30.04,NNE,23,2.0,-999.0,95,-99.99,,,0.00,0,weatherlink.com 1.10,2013-12-14 10:38:00,
2013-12-14 05:53:00,28.9,28.0,30.04,NE,47,6.0,-999.0,95,-99.99,,,0.00,0,weatherlink.com 1.10,2013-12-14 10:53:00,
2013-12-14 06:08:00,28.7,28.0,30.03,East,80,8.0,-999.0,95,-99.99,,,0.00,0,weatherlink.com 1.10,2013-12-14 11:08:00,
2013-12-14 06:23:00,28.6,27.0,30.03,NE,37,5.0,-999.0,95,-99.99,,,0.00,0,weatherlink.com 1.10,2013-12-14 11:23:00,
2013-12-14 06:38:00,28.4,27.0,30.03,East,79,6.0,-999.0,95,-99.99,,,0.00,0,weatherlink.com 1.10,2013-12-14 11:38:00,
2013-12-14 06:53:00,28.3,27.0,30.02,NE,54,8.0,-999.0,95,-99.99,,,0.00,0,weatherlink.com 1.10,2013-12-14 11:53:00,
2013-12-14 07:08:00,28.2,27.0,30.02,NE,51,9.0,-999.0,95,-99.99,,,0.00,0,weatherlink.com 1.10,2013-12-14 12:08:00,
2013-12-14 07:23:00,27.9,27.0,30.01,ENE,64,10.0,-999.0,95,-99.99,,,0.00,0,weatherlink.com 1.10,2013-12-14 12:23:00,
2013-12-14 07:38:00,27.7,27.0,30.01,ESE,110,7.0,-999.0,95,-99.99,,,0.00,0,weatherlink.com 1.10,2013-12-14 12:38:00,
2013-12-14 07:53:00,27.5,26.0,30.00,ENE,58,9.0,-999.0,95,-99.99,,,0.00,0,weatherlink.com 1.10,2013-12-14 12:53:00,
2013-12-14 08:08:00,27.4,26.0,29.98,NE,42,10.0,-999.0,95,-99.99,,,0.00,0,weatherlink.com 1.10,2013-12-14 13:08:00,
2013-12-14 08:23:00,27.4,26.0,29.98,NNE,28,8.0,-999.0,95,-99.99,,,0.00,9,weatherlink.com 1.10,2013-12-14 13:23:00,
2013-12-14 08:38:00,27.5,26.0,29.99,ENE,70,4.0,-999.0,95,-99.99,,,0.00,12,weatherlink.com 1.10,2013-12-14 13:38:00,
2013-12-14 08:52:00,27.5,26.0,29.98,ENE,73,5.0,-999.0,95,-99.99,,,0.00,19,weatherlink.com 1.10,2013-12-14 13:52:00,
2013-12-14 09:08:00,27.5,26.0,29.98,ENE,66,7.0,-999.0,95,-99.99,,,0.00,32,weatherlink.com 1.10,2013-12-14 14:08:00,
2013-12-14 09:23:00,27.5,26.0,29.98,NE,53,4.0,-999.0,95,-99.99,,,0.00,42,weatherlink.com 1.10,2013-12-14 14:23:00,
2013-12-14 09:38:00,27.6,26.0,29.97,NE,41,9.0,-999.0,95,-99.99,,,0.00,56,weatherlink.com 1.10,2013-12-14 14:38:00,
2013-12-14 09:53:00,27.6,26.0,29.96,ENE,74,10.0,-999.0,95,-99.99,,,0.00,63,weatherlink.com 1.10,2013-12-14 14:53:00,
2013-12-14 10:08:00,27.6,26.0,29.95,NNE,29,7.0,-999.0,95,-99.99,,,0.00,67,weatherlink.com 1.10,2013-12-14 15:08:00,
2013-12-14 10:23:00,27.6,26.0,29.95,NNE,31,10.0,-999.0,95,-99.99,,,0.00,70,weatherlink.com 1.10,2013-12-14 15:23:00,
2013-12-14 10:38:00,27.5,26.0,29.95,East,79,7.0,-999.0,95,-99.99,,,0.00,70,weatherlink.com 1.10,2013-12-14 15:38:00,
2013-12-14 10:53:00,27.3,26.0,29.93,NNE,19,7.0,-999.0,95,-99.99,,,0.00,81,weatherlink.com 1.10,2013-12-14 15:53:00,
2013-12-14 11:08:00,27.1,26.0,29.93,NNE,32,11.0,-999.0,95,-99.99,,,0.00,79,weatherlink.com 1.10,2013-12-14 16:08:00,
2013-12-14 11:23:00,26.9,26.0,29.91,NE,37,8.0,-999.0,95,-99.99,,,0.00,88,weatherlink.com 1.10,2013-12-14 16:23:00,
2013-12-14 11:38:00,26.8,26.0,29.90,East,83,9.0,-999.0,95,-99.99,,,0.00,86,weatherlink.com 1.10,2013-12-14 16:38:00,
2013-12-14 11:53:00,26.7,26.0,29.89,NE,45,5.0,-999.0,95,-99.99,,,0.00,76,weatherlink.com 1.10,2013-12-14 16:53:00,
2013-12-14 12:07:00,26.6,25.0,29.88,NNE,20,6.0,-999.0,95,-99.99,,,0.00,79,weatherlink.com 1.10,2013-12-14 17:07:00,
2013-12-14 12:22:00,26.6,25.0,29.87,NE,35,12.0,-999.0,95,-99.99,,,0.00,97,weatherlink.com 1.10,2013-12-14 17:22:00,
2013-12-14 12:37:00,26.7,26.0,29.86,ENE,58,8.0,-999.0,95,-99.99,,,0.00,107,weatherlink.com 1.10,2013-12-14 17:37:00,
2013-12-14 12:52:00,26.7,26.0,29.85,ENE,59,10.0,-999.0,95,-99.99,,,0.00,118,weatherlink.com 1.10,2013-12-14 17:52:00,
2013-12-14 13:07:00,26.7,26.0,29.84,NE,47,11.0,-999.0,95,-99.99,,,0.00,127,weatherlink.com 1.10,2013-12-14 18:07:00,
2013-12-14 13:22:00,26.7,26.0,29.83,NNE,21,8.0,-999.0,95,-99.99,,,0.00,151,weatherlink.com 1.10,2013-12-14 18:22:00,
2013-12-14 13:37:00,26.8,26.0,29.82,NNE,28,9.0,-999.0,95,-99.99,,,0.00,171,weatherlink.com 1.10,2013-12-14 18:37:00,
2013-12-14 13:52:00,27.1,26.0,29.81,NNE,12,7.0,-999.0,95,-99.99,,,0.00,169,weatherlink.com 1.10,2013-12-14 18:52:00,
2013-12-14 14:07:00,27.1,26.0,29.81,NNE,25,7.0,-999.0,95,-99.99,,,0.00,146,weatherlink.com 1.10,2013-12-14 19:07:00,
2013-12-14 14:22:00,27.2,26.0,29.81,North,10,4.0,-999.0,95,-99.99,,,0.00,125,weatherlink.com 1.10,2013-12-14 19:22:00,
2013-12-14 14:37:00,27.5,26.0,29.80,NNE,22,1.0,-999.0,95,-99.99,,,0.00,153,weatherlink.com 1.10,2013-12-14 19:37:00,
2013-12-14 14:52:00,27.6,26.0,29.80,NNW,341,5.0,-999.0,95,-99.99,,,0.00,149,weatherlink.com 1.10,2013-12-14 19:52:00,
2013-12-14 15:07:00,27.5,26.0,29.80,NNE,19,6.0,-999.0,95,-99.99,,,0.00,151,weatherlink.com 1.10,2013-12-14 20:07:00,
2013-12-14 15:22:00,27.1,26.0,29.80,North,354,12.0,-999.0,95,-99.99,,,0.00,120,weatherlink.com 1.10,2013-12-14 20:22:00,
2013-12-14 15:37:00,27.1,26.0,29.80,NNE,31,9.0,-999.0,95,-99.99,,,0.00,102,weatherlink.com 1.10,2013-12-14 20:37:00,
2013-12-14 15:52:00,27.4,26.0,29.81,North,359,5.0,-999.0,95,-99.99,,,0.00,79,weatherlink.com 1.10,2013-12-14 20:52:00,
2013-12-14 16:07:00,27.2,26.0,29.82,NNW,345,9.0,-999.0,95,-99.99,,,0.00,42,weatherlink.com 1.10,2013-12-14 21:07:00,
2013-12-14 16:22:00,27.4,26.0,29.82,NNE,17,8.0,-999.0,95,-99.99,,,0.00,77,weatherlink.com 1.10,2013-12-14 21:22:00,
2013-12-14 16:37:00,27.3,26.0,29.82,North,4,9.0,-999.0,95,-99.99,,,0.00,42,weatherlink.com 1.10,2013-12-14 21:37:00,
2013-12-14 16:52:00,27.3,26.0,29.82,North,4,5.0,-999.0,95,-99.99,,,0.00,49,weatherlink.com 1.10,2013-12-14 21:52:00,
2013-12-14 17:07:00,27.1,26.0,29.82,NNE,24,9.0,-999.0,95,-99.99,,,0.00,7,weatherlink.com 1.10,2013-12-14 22:07:00,
2013-12-14 17:22:00,27.0,26.0,29.83,NNE,20,6.0,-999.0,95,-99.99,,,0.00,0,weatherlink.com 1.10,2013-12-14 22:22:00,
2013-12-14 17:37:00,26.9,26.0,29.83,North,4,9.0,-999.0,95,-99.99,,,0.00,0,weatherlink.com 1.10,2013-12-14 22:37:00,
2013-12-14 17:52:00,26.9,26.0,29.83,North,4,8.0,-999.0,95,-99.99,,,0.00,0,weatherlink.com 1.10,2013-12-14 22:52:00,
2013-12-14 18:07:00,26.8,26.0,29.83,North,4,3.0,-999.0,95,-99.99,,,0.00,0,weatherlink.com 1.10,2013-12-14 23:07:00,
2013-12-14 18:22:00,26.8,26.0,29.84,NNW,332,7.0,-999.0,95,-99.99,,,0.00,0,weatherlink.com 1.10,2013-12-14 23:22:00,
2013-12-14 18:37:00,26.7,25.0,29.84,North,354,4.0,-999.0,94,-99.99,,,0.00,0,weatherlink.com 1.10,2013-12-14 23:37:00,
2013-12-14 18:52:00,26.4,25.0,29.86,NNW,337,5.0,-999.0,94,-99.99,,,0.00,0,weatherlink.com 1.10,2013-12-14 23:52:00,
2013-12-14 19:07:00,25.6,24.0,29.85,North,359,7.0,-999.0,94,-99.99,,,0.00,0,weatherlink.com 1.10,2013-12-15 00:07:00,
2013-12-14 19:22:00,25.2,24.0,29.85,NNW,330,8.0,-999.0,93,-99.99,,,0.00,0,weatherlink.com 1.10,2013-12-15 00:22:00,
2013-12-14 19:37:00,24.8,23.0,29.86,NNW,330,6.0,-999.0,93,-99.99,,,0.00,0,weatherlink.com 1.10,2013-12-15 00:37:00,
2013-12-14 19:52:00,24.5,23.0,29.87,NW,316,11.0,-999.0,93,-99.99,,,0.00,0,weatherlink.com 1.10,2013-12-15 00:52:00,
2013-12-14 20:07:00,24.1,22.0,29.87,NNW,332,6.0,-999.0,93,-99.99,,,0.00,0,weatherlink.com 1.10,2013-12-15 01:07:00,
2013-12-14 20:22:00,23.9,22.0,29.88,NNW,336,7.0,-999.0,93,-99.99,,,0.00,0,weatherlink.com 1.10,2013-12-15 01:22:00,
2013-12-14 20:37:00,23.6,22.0,29.89,NW,324,9.0,-999.0,92,-99.99,,,0.00,0,weatherlink.com 1.10,2013-12-15 01:37:00,
2013-12-14 20:52:00,23.4,22.0,29.89,NW,306,10.0,-999.0,92,-99.99,,,0.00,0,weatherlink.com 1.10,2013-12-15 01:52:00,
2013-12-14 21:07:00,23.1,21.0,29.90,WNW,303,9.0,-999.0,92,-99.99,,,0.00,0,weatherlink.com 1.10,2013-12-15 02:07:00,
2013-12-14 21:22:00,23.1,21.0,29.90,NNW,346,9.0,-999.0,92,-99.99,,,0.00,0,weatherlink.com 1.10,2013-12-15 02:22:00,
2013-12-14 21:37:00,23.0,21.0,29.90,North,4,7.0,-999.0,91,-99.99,,,0.00,0,weatherlink.com 1.10,2013-12-15 02:37:00,
2013-12-14 21:52:00,22.8,21.0,29.90,NW,324,7.0,-999.0,91,-99.99,,,0.00,0,weatherlink.com 1.10,2013-12-15 02:52:00,
2013-12-14 22:07:00,22.9,21.0,29.91,WNW,303,11.0,-999.0,91,-99.99,,,0.00,0,weatherlink.com 1.10,2013-12-15 03:07:00,
2013-12-14 22:22:00,23.0,21.0,29.91,NNW,343,4.0,-999.0,92,-99.99,,,0.00,0,weatherlink.com 1.10,2013-12-15 03:22:00,
2013-12-14 22:37:00,23.0,21.0,29.91,NW,323,7.0,-999.0,92,-99.99,,,0.00,0,weatherlink.com 1.10,2013-12-15 03:37:00,
2013-12-14 22:52:00,23.0,21.0,29.91,NW,310,8.0,-999.0,92,-99.99,,,0.00,0,weatherlink.com 1.10,2013-12-15 03:52:00,
2013-12-14 23:07:00,23.0,21.0,29.92,NNW,328,5.0,-999.0,92,-99.99,,,0.00,0,weatherlink.com 1.10,2013-12-15 04:07:00,
2013-12-14 23:22:00,22.9,21.0,29.92,West,270,6.0,-999.0,92,-99.99,,,0.00,0,weatherlink.com 1.10,2013-12-15 04:22:00,
2013-12-14 23:37:00,22.8,21.0,29.93,WNW,287,4.0,-999.0,92,-99.99,,,0.00,0,weatherlink.com 1.10,2013-12-15 04:37:00,
2013-12-14 23:52:00,22.6,21.0,29.93,NW,323,2.0,-999.0,92,-99.99,,,0.00,0,weatherlink.com 1.10,2013-12-15 04:52:00,